{"data":{"norad_id":64373,"intl_designator":"2025-127D","name":"STARLINK-11748 [DTC]","alt_names":[],"object_type":"PAYLOAD","status":"ACTIVE","operator":null,"country":"US","launch_date":"2025-06-13","launch_site_code":"AFETR","launch_vehicle":null,"mission":null,"orbit_class":"UNKNOWN","rcs_meters":null,"size_class":null,"mass_kg":null,"dimensions":null,"purposes":["comms"],"wikipedia_slug":null,"has_3d_model":false,"image_url":null,"decayed_at":null,"tle_current":{"epoch":"2026-05-24T06:23:39.856992Z","epoch_age_seconds":135261,"freshness":"FRESH","line1":"1 64373U 25127D   26144.26643353  .00172657  00000+0  13193-2 0  9995","line2":"2 64373  43.0007 349.4333 0000902 358.6994   1.3871 15.70875970 55383","mean_motion":15.7087597,"eccentricity":9.02e-5,"inclination_deg":43.0007,"raan_deg":349.4333,"arg_perigee_deg":358.6994,"mean_anomaly_deg":1.3871,"bstar":0.0013193,"rev_number":5538,"period_min":91.668599399353,"perigee_km":355.78479999968,"apogee_km":356.9997090772,"semimajor_km":6734.5292545384,"source":"CELESTRAK","updated_at":"2026-05-25T13:38:20.409508Z"}}}